Location: Newark
(7.0858°N, 171.3717°E)
Time: 15:08:04
(UTC+00:00)

Courier 1B Rocket - Pass Details

Date: 06 December 2020
Orbit: 920 x 1202 km, 28.2° (Epoch: 20 January)

Event Time Altitude Azimuth Distance (km) Brightness Sun altitude
Rises 12:46:32 0° 253° (WSW) 3,704 - -73.7°
Reaches altitude 10° 12:49:12 10° 258° (WSW) 2,794 - -73.5°
Maximum altitude 12:55:51 53° 334° (NNW) 1,293 - -72.9°
Drops below altitude 10° 13:03:00 10° 49° (NE) 2,997 - -72.1°
Sets 13:05:58 0° 54° (NE) 3,994 - -71.7°
